Williamtown Air Force Base, Australia

5:58 AM AEST on September 28, 2016 (GMT +1000)
Williamtown Military

Weather History for YWLM - November, 2012

Change the Weather History Date:

Sunday, November 4, 2012

  Actual Average Record
Temperature  
Mean Temperature 68 °F -  
Max Temperature 80 °F - - ()
Min Temperature 56 °F - - ()
Cooling Degree Days 3    
Growing Degree Days 18 (Base 50)    
Moisture  
Dew Point 56 °F    
Average Humidity 67    
Maximum Humidity 94    
Minimum Humidity 31    
Precipitation  
Precipitation 0.00 in - - ()
Sea Level Pressure  
Sea Level Pressure 30.06 in    
Wind  
Wind Speed 6 mph ()    
Max Wind Speed 21 mph    
Max Gust Speed -    
Visibility 6.2 miles    
Events      
T = Trace of Precipitation, MM = Missing Value Source: Averaged Metar Reports

Daily Weather History Graph

Daily Weather History Graph

Search for Another Location

Airport or City:

Trip Planner

Search our weather history database for the weather conditions in past years. The results will help you decide how hot, cold, wet, or windy it might be!

Date:

Astronomy

Nov. 04, 2012 Rise Set
Actual Time 5:51 AM AEDT 7:21 PM AEDT
Civil Twilight 5:24 AM AEDT 7:48 PM AEDT
Nautical Twilight 4:53 AM AEDT 8:19 PM AEDT
Astronomical Twilight 4:20 AM AEDT 8:52 PM AEDT
Moon 11:47 PM AEDT (11/4) 9:35 AM AEDT (11/4)
Length of Visible Light 14h 23m
Length of Day
13h 30m
Waning Gibbous, 77% of the Moon is Illuminated
Nov 4
Waning Gibbous
Nov 7
Last Quarter
Nov 14
New
Nov 21
First Quarter
Nov 29
Full

Hourly Weather History & Observations

Time (AEDT) Temp. Dew Point Humidity Pressure Visibility Wind Dir Wind Speed Gust Speed Precip Events Conditions
12:00 AM 61 °F 55 °F 75% 30.14 in - East 4.6 mph - -  
12:00 AM 60.8 °F 55.4 °F 82% 30.12 in 6.2 mi East 4.6 mph - N/A   Scattered Clouds
12:30 AM 60.8 °F 55.4 °F 82% 30.12 in 6.2 mi East 4.6 mph - N/A   Scattered Clouds
1:00 AM 60.8 °F 57.2 °F 88% 30.12 in 6.2 mi East 4.6 mph - N/A   Mostly Cloudy
1:30 AM 60.8 °F 57.2 °F 88% 30.09 in 6.2 mi East 4.6 mph - N/A   Overcast
2:00 AM 60 °F 56 °F 82% 30.12 in - Calm Calm - -  
2:00 AM 60.8 °F 55.4 °F 82% 30.09 in 6.2 mi Calm Calm - N/A   Scattered Clouds
2:30 AM 59.0 °F 55.4 °F 88% 30.09 in 6.2 mi Calm Calm - N/A   Mostly Cloudy
3:00 AM 59 °F 56 °F 86% 30.10 in - Calm Calm - -  
3:00 AM 59.0 °F 55.4 °F 88% 30.09 in 6.2 mi Calm Calm - N/A   Mostly Cloudy
3:30 AM 59.0 °F 55.4 °F 88% 30.09 in 6.2 mi Calm Calm - N/A   Scattered Clouds
4:00 AM 59.0 °F 55.4 °F 88% 30.06 in 6.2 mi Calm Calm - N/A   Scattered Clouds
4:30 AM 59.0 °F 55.4 °F 88% 30.06 in 6.2 mi Calm Calm - N/A   Unknown
5:00 AM 59 °F 55 °F 84% 30.09 in - Calm Calm - -  
5:00 AM 59.0 °F 55.4 °F 88% 30.06 in 6.2 mi Calm Calm - N/A   Unknown
5:30 AM 59.0 °F 55.4 °F 88% 30.09 in 6.2 mi Calm Calm - N/A   Mostly Cloudy
6:00 AM 58 °F 55 °F 86% 30.10 in - Calm Calm - -  
6:00 AM 57.2 °F 55.4 °F 94% 30.09 in 6.2 mi Calm Calm - N/A   Scattered Clouds
6:30 AM 57.2 °F 55.4 °F 94% 30.09 in 6.2 mi Calm Calm - N/A   Unknown
7:00 AM 59.0 °F 57.2 °F 94% 30.09 in 6.2 mi Calm Calm - N/A   Unknown
7:30 AM 60.8 °F 57.2 °F 88% 30.09 in 6.2 mi Calm Calm - N/A   Unknown
8:00 AM 64 °F 57 °F 71% 30.12 in - ENE 6.9 mph - -  
8:00 AM 64.4 °F 57.2 °F 77% 30.09 in 6.2 mi ENE 6.9 mph - N/A   Unknown
8:30 AM 68.0 °F 57.2 °F 68% 30.09 in 6.2 mi NE 9.2 mph - N/A   Unknown
9:00 AM 70 °F 54 °F 47% 30.12 in - NNE 10.4 mph - -  
9:00 AM 69.8 °F 53.6 °F 56% 30.09 in 6.2 mi NNE 10.4 mph - N/A   Unknown
9:30 AM 71.6 °F 55.4 °F 57% 30.09 in 6.2 mi NNE 10.4 mph - N/A   Unknown
10:00 AM 73.4 °F 53.6 °F 50% 30.09 in 6.2 mi North 10.4 mph - N/A   Unknown
10:30 AM 73.4 °F 53.6 °F 50% 30.09 in 6.2 mi North 6.9 mph - N/A   Scattered Clouds
11:00 AM 75 °F 54 °F 37% 30.09 in - NW 8.1 mph - -  
11:00 AM 75.2 °F 53.6 °F 47% 30.06 in 6.2 mi NW 8.1 mph - N/A   Scattered Clouds
11:30 AM 77.0 °F 53.6 °F 44% 30.06 in 6.2 mi NW 8.1 mph - N/A   Scattered Clouds
12:00 PM 77 °F 52 °F 31% 30.07 in - NNE 5.8 mph - -  
12:00 PM 77.0 °F 51.8 °F 41% 30.06 in 6.2 mi NNE 5.8 mph - N/A   Scattered Clouds
12:30 PM 78.8 °F 51.8 °F 39% 30.04 in 6.2 mi WNW 8.1 mph - N/A   Scattered Clouds
1:00 PM 80.6 °F 51.8 °F 37% 30.04 in 6.2 mi NNW 5.8 mph - N/A   Unknown
1:30 PM 78.8 °F 57.2 °F 47% 30.01 in 6.2 mi East 15.0 mph - N/A   Scattered Clouds
2:00 PM 75 °F 57 °F 43% 30.03 in - East 20.7 mph - -  
2:00 PM 75.2 °F 57.2 °F 53% 30.01 in 6.2 mi East 20.7 mph - N/A   Overcast
2:30 PM 75.2 °F 59.0 °F 57% 30.01 in 6.2 mi East 19.6 mph - N/A   Scattered Clouds
3:00 PM 75 °F 58 °F 46% 30.02 in - East 19.6 mph - -  
3:00 PM 75.2 °F 59.0 °F 57% 30.01 in 6.2 mi East 19.6 mph - N/A   Unknown
3:30 PM 75.2 °F 59.0 °F 57% 30.01 in 6.2 mi East 20.7 mph - N/A   Unknown
4:00 PM 75.2 °F 59.0 °F 57% 30.01 in 6.2 mi ENE 16.1 mph - N/A   Unknown
4:30 PM 75.2 °F 59.0 °F 57% 29.98 in 6.2 mi East 19.6 mph - N/A   Unknown
5:00 PM 75 °F 59 °F 47% 30.00 in - ENE 17.3 mph - -  
5:00 PM 75.2 °F 59.0 °F 57% 29.98 in 6.2 mi ENE 17.3 mph - N/A   Unknown
5:30 PM 73.4 °F 57.2 °F 57% 30.01 in 6.2 mi ENE 15.0 mph - N/A   Unknown
6:00 PM 73 °F 57 °F 48% 30.01 in - ENE 17.3 mph - -  
6:00 PM 73.4 °F 57.2 °F 57% 30.01 in 6.2 mi NE 17.3 mph - N/A   Unknown
6:30 PM 71.6 °F 57.2 °F 60% 30.01 in 6.2 mi ENE 17.3 mph - N/A   Unknown
7:00 PM 69.8 °F 57.2 °F 64% 30.01 in 6.2 mi ENE 15.0 mph - N/A   Unknown
7:30 PM 69.8 °F 57.2 °F 64% 30.04 in 6.2 mi NE 15.0 mph - N/A   Unknown
8:00 PM 68 °F 58 °F 61% 30.06 in - NE 9.2 mph - -  
8:00 PM 68.0 °F 57.2 °F 68% 30.04 in - NE 9.2 mph - N/A   Unknown
8:30 PM 68.0 °F 59.0 °F 73% 30.06 in - NE 11.5 mph - N/A   Unknown
9:00 PM 67 °F 58 °F 67% 30.08 in - NE 10.4 mph - -  
9:00 PM 68.0 °F 59.0 °F 73% 30.06 in 6.2 mi NE 10.4 mph - N/A   Unknown
9:30 PM 66.2 °F 59.0 °F 78% 30.06 in 6.2 mi NE 11.5 mph - N/A   Unknown
10:00 PM 66.2 °F 59.0 °F 78% 30.06 in 6.2 mi NE 11.5 mph - N/A   Scattered Clouds
10:30 PM 66.2 °F 59.0 °F 78% 30.06 in 6.2 mi NE 11.5 mph - N/A   Scattered Clouds
11:00 PM 66 °F 59 °F 70% 30.09 in - NE 10.4 mph - -  
11:00 PM 66.2 °F 59.0 °F 78% 30.06 in 6.2 mi NE 10.4 mph - N/A   Scattered Clouds
11:30 PM 66.2 °F 59.0 °F 78% 30.06 in 6.2 mi NE 8.1 mph - N/A   Mostly Cloudy